FW6809 Weather Reports


Display with metric or nautical units.
time (UTC)temp
F
wind
direction
speed
MPH
gust
MPH
rain 1hr
in
rain 24hr
in
rain mn
in
humidity
%
barometer
mb
20260903213056 91 0 0.0 0.0 0.00 0.00 0.00 62 1017.8
20260903211604 91 0 0.0 1.0 0.00 0.00 0.00 59 1017.9
20260903210107 91 0 0.0 0.0 0.00 0.00 0.00 56 1018.1
20260903204559 92 0 0.0 4.0 0.00 0.00 0.00 57 1018.1
20260903203057 92 0 1.0 5.0 0.00 0.00 0.00 54 1018.3
20260903201557 92 0 0.0 3.0 0.00 0.00 0.00 58 1018.2
20260903200052 92 0 0.0 3.0 0.00 0.00 0.00 57 1018.5
20260903194559 91 107 0.0 1.0 0.00 0.00 0.00 56 1018.7
20260903193056 92 0 1.0 4.0 0.00 0.00 0.00 57 1018.7
20260903191559 90 0 0.0 0.0 0.00 0.00 0.00 66 1018.7
20260903190104 92 0 0.0 3.0 0.00 0.00 0.00 58 1019.3
20260903184601 91 0 0.0 0.0 0.00 0.00 0.00 67 1019.3
20260903183100 89 0 0.0 0.0 0.00 0.00 0.00 74 1019.5
20260903181554 91 0 0.0 1.0 0.00 0.00 0.00 61 1019.7
20260903180104 90 0 0.0 0.0 0.00 0.00 0.00 73 1019.9
20260903174558 91 0 0.0 0.0 0.00 0.00 0.00 70 1020.0
20260903173056 90 0 0.0 0.0 0.00 0.00 0.00 67 1020.1
20260903171553 91 0 0.0 2.0 0.00 0.00 0.00 64 1020.3
20260903170058 93 120 1.0 5.0 0.00 0.00 0.00 59 1020.4
20260903164607 92 0 0.0 2.0 0.00 0.00 0.00 61 1020.6
20260903163052 92 167 0.0 3.0 0.00 0.00 0.00 59 1020.8
20260903161600 92 0 0.0 2.0 0.00 0.00 0.00 60 1020.9
20260903160106 92 0 0.0 0.0 0.00 0.00 0.00 63 1021.0
20260903154605 92 0 0.0 2.0 0.00 0.00 0.00 64 1021.0
20260903153059 91 0 0.0 0.0 0.00 0.00 0.00 66 1021.0
20260903151554 91 0 0.0 0.0 0.00 0.00 0.00 69 1021.0
20260903150105 90 0 0.0 0.0 0.00 0.00 0.00 74 1021.0
20260903144559 89 0 0.0 0.0 0.00 0.00 0.00 78 1021.0
20260903143111 88 0 0.0 0.0 0.00 0.00 0.00 79 1021.0
20260903141555 87 0 0.0 0.0 0.00 0.00 0.00 80 1020.9
20260903140057 86 0 0.0 0.0 0.00 0.00 0.00 80 1021.0
20260903134600 85 0 0.0 0.0 0.00 0.00 0.00 80 1021.1
20260903133110 83 0 0.0 0.0 0.00 0.00 0.00 84 1021.0
20260903131608 81 0 0.0 0.0 0.00 0.00 0.00 86 1021.3
20260903130107 79 0 0.0 0.0 0.00 0.00 0.00 87 1021.3
20260903124551 77 0 0.0 0.0 0.00 0.00 0.00 89 1021.3
20260903123058 74 0 0.0 0.0 0.00 0.00 0.00 98 1021.3
20260903121555 71 0 0.0 0.0 0.00 0.00 0.00 100 1021.3
20260903120055 69 0 0.0 0.0 0.00 0.00 0.00 100 1021.2
20260903114549 68 0 0.0 0.0 0.00 0.00 0.00 100 1020.9
20260903113056 68 0 0.0 0.0 0.00 0.00 0.00 100 1020.9
20260903111604 68 0 0.0 0.0 0.00 0.00 0.00 100 1020.6
20260903110059 68 0 0.0 0.0 0.00 0.00 0.00 100 1020.6
20260903104556 69 0 0.0 0.0 0.00 0.00 0.00 100 1020.6
20260903103059 69 0 0.0 0.0 0.00 0.00 0.00 100 1020.5
20260903101601 69 0 0.0 0.0 0.00 0.00 0.00 100 1020.2
20260903100106 69 0 0.0 0.0 0.00 0.00 0.00 100 1020.0
20260903094610 69 0 0.0 0.0 0.00 0.00 0.00 100 1020.1
20260903093107 69 0 0.0 0.0 0.00 0.00 0.00 100 1019.9
20260903091611 70 0 0.0 0.0 0.00 0.00 0.00 100 1020.1
20260903084600 70 0 0.0 0.0 0.00 0.00 0.00 100 1020.2
20260903083056 70 0 0.0 0.0 0.00 0.00 0.00 100 1020.3
20260903081602 70 0 0.0 0.0 0.00 0.00 0.00 99 1020.1
20260903080058 70 0 0.0 0.0 0.00 0.00 0.00 99 1020.1
20260903074558 70 0 0.0 0.0 0.00 0.00 0.00 99 1020.0
20260903073102 71 0 0.0 0.0 0.00 0.00 0.00 99 1020.1
20260903071602 71 0 0.0 0.0 0.00 0.00 0.00 99 1019.9
20260903070057 71 0 0.0 0.0 0.00 0.00 0.00 99 1019.9
20260903064556 71 0 0.0 0.0 0.00 0.00 0.00 99 1020.0
20260903063052 71 0 0.0 0.0 0.00 0.00 0.00 99 1020.0
20260903061554 72 0 0.0 0.0 0.00 0.00 0.00 98 1020.0
20260903060059 72 0 0.0 0.0 0.00 0.00 0.00 98 1020.2
20260903054553 72 0 0.0 0.0 0.00 0.00 0.00 98 1020.1
20260903053054 72 0 0.0 0.0 0.00 0.00 0.00 98 1020.2
20260903051603 72 0 0.0 0.0 0.00 0.00 0.00 98 1020.3
20260903050056 72 0 0.0 0.0 0.00 0.00 0.00 98 1020.2
20260903044549 72 0 0.0 0.0 0.00 0.00 0.00 98 1020.2
20260903043058 72 0 0.0 0.0 0.00 0.00 0.00 97 1020.2
20260903041559 72 0 0.0 0.0 0.00 0.00 0.00 97 1020.2
20260903040054 72 0 0.0 0.0 0.00 0.00 0.00 97 1020.1
20260903034603 73 0 0.0 0.0 0.00 0.00 0.00 97 1020.1
20260903033056 73 0 0.0 0.0 0.00 0.00 0.00 97 1020.4
20260903031555 73 0 0.0 0.0 0.00 0.00 0.00 97 1020.4
20260903030058 73 0 0.0 0.0 0.00 0.00 0.00 97 1020.3
20260903024555 73 0 0.0 0.0 0.00 0.00 0.00 97 1020.4
20260903023122 74 0 0.0 0.0 0.00 0.00 0.00 96 1020.4
20260903021556 74 0 0.0 0.0 0.00 0.00 0.00 96 1020.4
20260903020059 74 0 0.0 0.0 0.00 0.00 0.00 96 1020.2
20260903014603 75 0 0.0 0.0 0.00 0.00 0.00 95 1020.1
20260903013053 75 0 0.0 0.0 0.00 0.00 0.00 94 1020.0
20260903011602 76 0 0.0 0.0 0.00 0.00 0.00 94 1019.8
20260903004557 77 0 0.0 0.0 0.00 0.00 0.00 93 1019.6
20260903003055 78 0 0.0 0.0 0.00 0.00 0.00 91 1019.6
20260903001556 79 0 0.0 0.0 0.00 0.00 0.00 93 1019.5
20260903000059 80 0 0.0 0.0 0.00 0.00 0.00 91 1019.4
20260902234605 81 0 0.0 0.0 0.00 0.00 0.00 89 1019.5
20260902233051 82 0 0.0 0.0 0.00 0.00 0.00 88 1019.5
20260902231602 83 0 0.0 0.0 0.00 0.00 0.00 86 1019.7
20260902230056 84 0 0.0 0.0 0.00 0.00 0.00 84 1019.6
20260902224553 84 0 0.0 0.0 0.00 0.00 0.00 82 1019.7
20260902223105 85 0 0.0 0.0 0.00 0.00 0.00 79 1019.9
20260902221557 87 0 0.0 0.0 0.00 0.00 0.00 77 1019.9
20260902220053 91 0 0.0 1.0 0.00 0.00 0.00 62 1019.7
20260902214556 91 0 0.0 4.0 0.00 0.00 0.00 62 1019.8